| time (UTC) | temp F | wind direction | speed MPH | gust MPH | rain 1hr in | rain 24hr in | rain mn in | humidity % | barometer mb |
| 20260831024550 | 77 | 156 | 1.0 | 5.0 | 0.00 | 0.00 | 0.00 | 28 | 1015.8 |
| 20260831023549 | 77 | 156 | 2.0 | 5.0 | 0.00 | 0.00 | 0.00 | 27 | 1015.8 |
| 20260831022549 | 77 | 156 | 2.0 | 5.0 | 0.00 | 0.00 | 0.00 | 27 | 1015.7 |
| 20260831021550 | 77 | 155 | 2.0 | 6.0 | 0.00 | 0.00 | 0.00 | 27 | 1015.5 |
| 20260831020550 | 78 | 156 | 3.0 | 8.0 | 0.00 | 0.00 | 0.00 | 27 | 1015.4 |
| 20260831015551 | 78 | 138 | 6.0 | 10.0 | 0.00 | 0.00 | 0.00 | 27 | 1015.2 |
| 20260831014550 | 78 | 159 | 7.0 | 11.0 | 0.00 | 0.00 | 0.00 | 26 | 1015.2 |
| 20260831013550 | 79 | 128 | 3.0 | 10.0 | 0.00 | 0.00 | 0.00 | 26 | 1015.1 |
| 20260831012550 | 79 | 130 | 4.0 | 9.0 | 0.00 | 0.00 | 0.00 | 26 | 1015.1 |
| 20260831011550 | 79 | 157 | 7.0 | 15.0 | 0.00 | 0.00 | 0.00 | 26 | 1015.2 |
| 20260831010550 | 79 | 150 | 6.0 | 13.0 | 0.00 | 0.00 | 0.00 | 26 | 1015.2 |
| 20260831005550 | 79 | 216 | 6.0 | 17.0 | 0.00 | 0.00 | 0.00 | 25 | 1015.3 |
| 20260831004550 | 80 | 158 | 9.0 | 19.0 | 0.00 | 0.00 | 0.00 | 25 | 1015.2 |
| 20260831003550 | 80 | 122 | 8.0 | 20.0 | 0.00 | 0.00 | 0.00 | 25 | 1015.3 |
| 20260831002550 | 80 | 138 | 11.0 | 25.0 | 0.00 | 0.00 | 0.00 | 25 | 1015.2 |
| 20260830235550 | 80 | 161 | 9.0 | 18.0 | 0.00 | 0.00 | 0.00 | 26 | 1015.3 |
| 20260830234550 | 80 | 157 | 10.0 | 27.0 | 0.00 | 0.00 | 0.00 | 25 | 1015.3 |
| 20260830233550 | 80 | 139 | 14.0 | 25.0 | 0.00 | 0.00 | 0.00 | 26 | 1015.2 |
| 20260830231550 | 81 | 122 | 17.0 | 29.0 | 0.00 | 0.00 | 0.00 | 25 | 1014.9 |
| 20260830230622 | 81 | 149 | 12.0 | 31.0 | 0.00 | 0.00 | 0.00 | 25 | 1014.8 |
| 20260830230550 | 81 | 149 | 12.0 | 31.0 | 0.00 | 0.00 | 0.00 | 25 | 1014.8 |
| 20260830225550 | 82 | 117 | 13.0 | 35.0 | 0.00 | 0.00 | 0.00 | 25 | 1014.7 |
| 20260830224550 | 83 | 209 | 12.0 | 34.0 | 0.00 | 0.00 | 0.00 | 23 | 1014.7 |
| 20260830222550 | 83 | 170 | 17.0 | 28.0 | 0.00 | 0.00 | 0.00 | 23 | 1014.9 |
| 20260830221552 | 83 | 131 | 15.0 | 33.0 | 0.00 | 0.00 | 0.00 | 23 | 1014.9 |
| 20260830213550 | 84 | 185 | 25.0 | 35.0 | 0.00 | 0.00 | 0.00 | 23 | 1015.0 |
| 20260830212550 | 86 | 142 | 15.0 | 24.0 | 0.00 | 0.00 | 0.00 | 22 | 1015.1 |
| 20260830211550 | 86 | 138 | 11.0 | 41.0 | 0.00 | 0.00 | 0.00 | 23 | 1015.4 |
| 20260830210551 | 84 | 161 | 25.0 | 36.0 | 0.00 | 0.00 | 0.00 | 25 | 1015.3 |
| 20260830204550 | 84 | 152 | 17.0 | 35.0 | 0.00 | 0.00 | 0.00 | 25 | 1015.3 |
| 20260830203550 | 83 | 148 | 22.0 | 35.0 | 0.00 | 0.00 | 0.00 | 26 | 1015.4 |
| 20260830201550 | 85 | 168 | 15.0 | 32.0 | 0.00 | 0.00 | 0.00 | 26 | 1015.6 |
| 20260830200551 | 83 | 88 | 13.0 | 36.0 | 0.00 | 0.00 | 0.00 | 27 | 1015.5 |
| 20260830195551 | 83 | 152 | 14.0 | 35.0 | 0.00 | 0.00 | 0.00 | 27 | 1015.7 |
| 20260830193550 | 82 | 122 | 23.0 | 32.0 | 0.00 | 0.00 | 0.00 | 28 | 1015.6 |
| 20260830192550 | 83 | 133 | 15.0 | 33.0 | 0.00 | 0.00 | 0.00 | 28 | 1015.9 |
| 20260830190550 | 82 | 152 | 14.0 | 32.0 | 0.00 | 0.00 | 0.00 | 28 | 1016.2 |
| 20260830185550 | 83 | 135 | 19.0 | 29.0 | 0.00 | 0.00 | 0.00 | 28 | 1015.8 |
| 20260830184550 | 83 | 131 | 12.0 | 25.0 | 0.00 | 0.00 | 0.00 | 28 | 1016.0 |
| 20260830183551 | 81 | 153 | 7.0 | 35.0 | 0.00 | 0.00 | 0.00 | 30 | 1016.2 |
| 20260830182552 | 81 | 115 | 13.0 | 35.0 | 0.00 | 0.00 | 0.00 | 30 | 1016.1 |
| 20260830181551 | 80 | 153 | 21.0 | 41.0 | 0.00 | 0.00 | 0.00 | 31 | 1016.4 |
| 20260830175554 | 81 | 123 | 12.0 | 28.0 | 0.00 | 0.00 | 0.00 | 32 | 1016.4 |
| 20260830174551 | 82 | 156 | 13.0 | 29.0 | 0.00 | 0.00 | 0.00 | 31 | 1016.4 |
| 20260830173551 | 81 | 150 | 11.0 | 26.0 | 0.00 | 0.00 | 0.00 | 32 | 1016.3 |
| 20260830172551 | 81 | 165 | 15.0 | 24.0 | 0.00 | 0.00 | 0.00 | 32 | 1016.2 |
| 20260830171551 | 80 | 137 | 8.0 | 31.0 | 0.00 | 0.00 | 0.00 | 33 | 1016.3 |
| 20260830170552 | 80 | 147 | 16.0 | 26.0 | 0.00 | 0.00 | 0.00 | 33 | 1017.1 |
| 20260830165551 | 79 | 156 | 16.0 | 30.0 | 0.00 | 0.00 | 0.00 | 35 | 1016.3 |
| 20260830163551 | 81 | 156 | 8.0 | 19.0 | 0.00 | 0.00 | 0.00 | 33 | 1016.3 |
| 20260830162552 | 80 | 152 | 11.0 | 22.0 | 0.00 | 0.00 | 0.00 | 33 | 1016.3 |
| 20260830160551 | 79 | 159 | 13.0 | 26.0 | 0.00 | 0.00 | 0.00 | 34 | 1016.1 |
| 20260830154551 | 78 | 130 | 13.0 | 24.0 | 0.00 | 0.00 | 0.00 | 34 | 1016.0 |
| 20260830153551 | 80 | 114 | 10.0 | 16.0 | 0.00 | 0.00 | 0.00 | 33 | 1016.1 |
| 20260830152551 | 80 | 112 | 9.0 | 13.0 | 0.00 | 0.00 | 0.00 | 33 | 1016.2 |
| 20260830151551 | 79 | 97 | 6.0 | 13.0 | 0.00 | 0.00 | 0.00 | 34 | 1016.4 |
| 20260830150551 | 78 | 101 | 4.0 | 9.0 | 0.00 | 0.00 | 0.00 | 34 | 1016.4 |
| 20260830145551 | 77 | 84 | 3.0 | 8.0 | 0.00 | 0.00 | 0.00 | 36 | 1016.4 |
| 20260830144551 | 76 | 73 | 3.0 | 7.0 | 0.00 | 0.00 | 0.00 | 36 | 1016.4 |
| 20260830143551 | 75 | 95 | 3.0 | 6.0 | 0.00 | 0.00 | 0.00 | 37 | 1016.5 |
| 20260830142552 | 75 | 87 | 2.0 | 4.0 | 0.00 | 0.00 | 0.00 | 38 | 1016.4 |
| 20260830141551 | 75 | 0 | 0.0 | 4.0 | 0.00 | 0.00 | 0.00 | 38 | 1016.3 |
| 20260830140551 | 74 | 0 | 0.0 | 4.0 | 0.00 | 0.00 | 0.00 | 39 | 1016.5 |
| 20260830135552 | 73 | 151 | 1.0 | 3.0 | 0.00 | 0.00 | 0.00 | 39 | 1016.4 |
| 20260830134551 | 72 | 152 | 2.0 | 5.0 | 0.00 | 0.00 | 0.00 | 40 | 1016.2 |
| 20260830133551 | 71 | 150 | 3.0 | 7.0 | 0.00 | 0.00 | 0.00 | 40 | 1016.2 |
| 20260830131551 | 71 | 0 | 0.0 | 8.0 | 0.00 | 0.00 | 0.00 | 40 | 1016.0 |
| 20260830130551 | 71 | 150 | 4.0 | 7.0 | 0.00 | 0.00 | 0.00 | 39 | 1015.7 |
| 20260830125551 | 72 | 157 | 3.0 | 10.0 | 0.00 | 0.00 | 0.00 | 39 | 1015.9 |
| 20260830124551 | 72 | 170 | 6.0 | 12.0 | 0.00 | 0.00 | 0.00 | 39 | 1015.8 |
| 20260830123551 | 72 | 156 | 4.0 | 9.0 | 0.00 | 0.00 | 0.00 | 39 | 1015.7 |
| 20260830122551 | 71 | 0 | 0.0 | 0.0 | 0.00 | 0.00 | 0.00 | 39 | 1015.7 |
| 20260830121551 | 72 | 0 | 0.0 | 2.0 | 0.00 | 0.00 | 0.00 | 39 | 1015.6 |
| 20260830120551 | 72 | 141 | 2.0 | 4.0 | 0.00 | 0.00 | 0.00 | 39 | 1015.3 |
| 20260830115551 | 72 | 139 | 1.0 | 7.0 | 0.00 | 0.00 | 0.00 | 39 | 1015.1 |
| 20260830114551 | 72 | 139 | 4.0 | 7.0 | 0.00 | 0.00 | 0.00 | 39 | 1015.1 |
| 20260830113551 | 72 | 152 | 3.0 | 7.0 | 0.00 | 0.00 | 0.00 | 38 | 1015.3 |
| 20260830112552 | 72 | 152 | 2.0 | 5.0 | 0.00 | 0.00 | 0.00 | 38 | 1015.1 |
| 20260830111551 | 73 | 149 | 3.0 | 5.0 | 0.00 | 0.00 | 0.00 | 37 | 1015.1 |
| 20260830110552 | 73 | 147 | 3.0 | 7.0 | 0.00 | 0.00 | 0.00 | 36 | 1015.2 |
| 20260830105552 | 73 | 156 | 4.0 | 6.0 | 0.00 | 0.00 | 0.00 | 36 | 1015.2 |
| 20260830104553 | 73 | 155 | 3.0 | 8.0 | 0.00 | 0.00 | 0.00 | 35 | 1015.2 |
| 20260830103553 | 74 | 158 | 6.0 | 9.0 | 0.00 | 0.00 | 0.00 | 35 | 1015.2 |
| 20260830102552 | 74 | 162 | 6.0 | 9.0 | 0.00 | 0.00 | 0.00 | 35 | 1015.2 |
| 20260830101551 | 74 | 154 | 3.0 | 10.0 | 0.00 | 0.00 | 0.00 | 34 | 1015.0 |
| 20260830100552 | 74 | 154 | 5.0 | 7.0 | 0.00 | 0.00 | 0.00 | 34 | 1015.1 |
| 20260830094552 | 74 | 158 | 5.0 | 9.0 | 0.00 | 0.00 | 0.00 | 34 | 1014.8 |
| 20260830093552 | 74 | 134 | 3.0 | 8.0 | 0.00 | 0.00 | 0.00 | 1014.8 | |
| 20260830092552 | 75 | 125 | 6.0 | 9.0 | 0.00 | 0.00 | 0.00 | 33 | 1014.9 |
| 20260830091552 | 75 | 160 | 2.0 | 5.0 | 0.00 | 0.00 | 0.00 | 32 | 1014.8 |
| 20260830090552 | 76 | 160 | 1.0 | 6.0 | 0.00 | 0.00 | 0.00 | 32 | 1014.8 |
| 20260830085552 | 75 | 156 | 3.0 | 6.0 | 0.00 | 0.00 | 0.00 | 33 | 1014.8 |
| 20260830084554 | 75 | 155 | 1.0 | 3.0 | 0.00 | 0.00 | 0.00 | 32 | 1014.9 |
| 20260830083552 | 76 | 155 | 1.0 | 3.0 | 0.00 | 0.00 | 0.00 | 32 | 1015.0 |
| 20260830082553 | 76 | 0 | 0.0 | 4.0 | 0.00 | 0.00 | 0.00 | 31 | 1014.9 |
| 20260830081552 | 77 | 0 | 0.0 | 4.0 | 0.00 | 0.00 | 0.00 | 31 | 1015.0 |
| 20260830080552 | 77 | 159 | 3.0 | 7.0 | 0.00 | 0.00 | 0.00 | 31 | 1015.1 |
| 20260830075552 | 78 | 134 | 4.0 | 10.0 | 0.00 | 0.00 | 0.00 | 30 | 1015.1 |
| 20260830074552 | 79 | 194 | 5.0 | 8.0 | 0.00 | 0.00 | 0.00 | 30 | 1015.2 |
| 20260830073552 | 79 | 222 | 6.0 | 19.0 | 0.00 | 0.00 | 0.00 | 30 | 1015.1 |
| 20260830072552 | 79 | 228 | 6.0 | 18.0 | 0.00 | 0.00 | 0.00 | 29 | 1015.2 |
| 20260830071552 | 78 | 182 | 5.0 | 12.0 | 0.00 | 0.00 | 0.00 | 30 | 1015.2 |
| 20260830070555 | 78 | 222 | 3.0 | 10.0 | 0.00 | 0.00 | 0.00 | 29 | 1015.2 |
| 20260830065553 | 78 | 226 | 4.0 | 10.0 | 0.00 | 0.00 | 0.00 | 29 | 1015.2 |
| 20260830064552 | 79 | 214 | 4.0 | 11.0 | 0.00 | 0.00 | 0.00 | 29 | 1015.3 |
| 20260830063553 | 79 | 215 | 7.0 | 11.0 | 0.00 | 0.00 | 0.00 | 29 | 1015.4 |
| 20260830062552 | 79 | 201 | 6.0 | 12.0 | 0.00 | 0.00 | 0.00 | 29 | 1015.4 |
| 20260830061553 | 79 | 216 | 7.0 | 12.0 | 0.00 | 0.00 | 0.00 | 29 | 1015.4 |
| 20260830060552 | 79 | 246 | 4.0 | 9.0 | 0.00 | 0.00 | 0.00 | 29 | 1015.4 |
| 20260830055554 | 79 | 217 | 2.0 | 6.0 | 0.00 | 0.00 | 0.00 | 29 | 1015.3 |
| 20260830054552 | 79 | 0 | 0.0 | 4.0 | 0.00 | 0.00 | 0.00 | 29 | 1015.3 |
| 20260830053552 | 79 | 138 | 1.0 | 5.0 | 0.00 | 0.00 | 0.00 | 28 | 1015.5 |
| 20260830052552 | 79 | 170 | 3.0 | 6.0 | 0.00 | 0.00 | 0.00 | 28 | 1015.4 |
| 20260830051553 | 80 | 190 | 3.0 | 10.0 | 0.00 | 0.00 | 0.00 | 28 | 1015.5 |
| 20260830050555 | 80 | 197 | 5.0 | 9.0 | 0.00 | 0.00 | 0.00 | 28 | 1015.4 |
| 20260830045553 | 80 | 0 | 0.0 | 5.0 | 0.00 | 0.00 | 0.00 | 27 | 1015.4 |
| 20260830044554 | 80 | 226 | 6.0 | 15.0 | 0.00 | 0.00 | 0.00 | 27 | 1015.3 |
| 20260830043552 | 80 | 203 | 5.0 | 16.0 | 0.00 | 0.00 | 0.00 | 27 | 1015.4 |
| 20260830042552 | 80 | 218 | 9.0 | 17.0 | 0.00 | 0.00 | 0.00 | 27 | 1015.2 |
| 20260830041552 | 80 | 159 | 1.0 | 12.0 | 0.00 | 0.00 | 0.00 | 28 | 1015.3 |
| 20260830040554 | 80 | 236 | 4.0 | 14.0 | 0.00 | 0.00 | 0.00 | 27 | 1015.2 |
| 20260830035556 | 80 | 327 | 4.0 | 11.0 | 0.00 | 0.00 | 0.00 | 27 | 1015.1 |
| 20260830034555 | 80 | 245 | 1.0 | 16.0 | 0.00 | 0.00 | 0.00 | 27 | 1015.0 |
| 20260830033553 | 80 | 247 | 1.0 | 8.0 | 0.00 | 0.00 | 0.00 | 28 | 1014.9 |
| 20260830031553 | 80 | 221 | 3.0 | 12.0 | 0.00 | 0.00 | 0.00 | 28 | 1014.7 |
| 20260830030553 | 80 | 205 | 2.0 | 8.0 | 0.00 | 0.00 | 0.00 | 27 | 1014.5 |
| 20260830025555 | 81 | 178 | 2.0 | 9.0 | 0.00 | 0.00 | 0.00 | 27 | 1014.4 |